Location: Reutlingen
(48.4911°N, 9.2587°E)
Time: 02:53:57
(UTC+01:00)

ISS - Pass Details

Date: 11 January 2018
Orbit: 402 x 407 km, 51.6° (Epoch: 18 January)

Event Time Altitude Azimuth Distance (km) Brightness Sun altitude
Exits shadow 05:41:18 36° 83° (E) 664 -2.3 -24.2°
Drops below altitude 10° 05:43:26 10° 98° (E) 1,466 0.1 -23.9°
Sets 05:45:32 0° 101° (ESE) 2,326 1.5 -23.5°
